Weather in Novoorzhytske

Ukraine / Poltava Region     50°01′26″N   32°43′41″E
temp.,
°C
wind,
m/s
gust,
m/s
humid.,
%
clouds,
%
prec.,
mm/h
press.,
hPa
HPBL,
m
16 may, sun
sun1600:00+13sw22873 0.1 101222
03:00+12wsw22892 0.1 101314
06:00+11wnw12884 0.0 101314
09:00+17wsw116961 0.0 1014366
12:00+21sse115586 0.0 1013936
15:00+23e2248100 0.0 10121725
18:00+20ne3469100 0.0 101175
21:00+17ne467384 0.0 101077
17 may, mon
mon1700:00+15ne4981100 0.0 1009156
03:00+15ne3890100 0.7 1007160
06:00+14nne5994100 1.1 1006194
09:00+18ne578189 1.1 1004453
12:00+23ese4560100 0.0 1003896
15:00+24ese685988 0.0 10021328
18:00+22se5107712 0.2 1000594
21:00+19sse7148725 1.0 1002553
18 may, tue
tue1800:00+14se6139161 0.0 1002483
03:00+15sse61095100 0.0 1001589
06:00+15ssw6995100 0.4 1002516
09:00+17s688018 0.5 1003609
12:00+19sse7975100 0.5 1003963
15:00+16sse41182100 1.2 1003585
18:00+16sse61190100 3.5 1001509
21:00+15s51093100 3.8 1002335
19 may, wed
wed1900:00+12wsw51093100 0.2 1003476
03:00+11sw4896100 0.2 1004387
06:00+10ssw4893100 0.0 1005553
09:00+11sw5891100 0.1 1004660
12:00+12sw6987100 0.2 1005820
15:00+11sw81392100 0.8 1005950
18:00+10wsw91493100 0.4 1007926
21:00+10w81490100 0.8 1010836
20 may, thu
thu2000:00+9wsw6139016 0.0 1011547
03:00+8wsw411950 0.0 1011233
06:00+8wsw37955 0.0 1012153
09:00+14sw567785 0.0 1013591
12:00+17sw3361100 0.0 10131090
15:00+18s2258100 0.0 10131232
18:00+17ene2371100 0.0 1012281
21:00+14ne337693 0.3 101248